Back to catalog

STARLINK-11293

AliveCommunicationsVLEO
NORAD 61249·PAYLOAD·🇺🇸 United States

Launched Sep 25, 2024 from Vandenberg Space Force Base

Loading…

Next Passes (next 24 hours)

TLE

FreshSource: CelesTrak SupGP

Epoch: Sep 14, 2026, 21:01 UTC

1 61249C 24175G   26257.87618056  .00057260  00000+0  47136-3 0  2574
2 61249  53.1575 203.3257 0001100  99.7660 297.8542 15.69696812    12

Track STARLINK-11293 in real time with AllMySat

Download on the App Store